Home > Weather > Rheine > Past weeks

Flag for Germany Weather for the Past 2 Weeks in Rheine, North Rhine-Westphalia, Germany

Now
34 °F

Chilly.


Feels Like: 25 °F
Forecast: 26 / 35 °F
Wind: 13 mph from Northeast

Location: Rheine-Bentlage

Current Time: Feb 14, 2016 at 9:15:33 AM

Latest Report: Feb 14, 2016 at 8:20 AM


Visibility: N/A

Pressure: 29.12 "Hg

Humidity: 93%

Dew point: 32 °F

Location of RheineLocation

Historic Weather in Rheine — Graph

°F

Rheine Temperature Yesterday

Maximum temperature yesterday: 41 °F (at 4:20 PM)
Minimum temperature yesterday: 28 °F (at 4:20 AM)
Average temperature yesterday: 34 °F

High & Low Weather Summary for the Past Weeks

 TemperatureHumidityPressure
High54 °F (Feb 1, 3:20 PM)100% (Jan 31, 7:20 PM)30.27 "Hg (Jan 31, 7:20 PM)
Low28 °F (Feb 13, 4:20 AM)61% (Feb 3, 1:20 PM)28.77 "Hg (Feb 9, 6:20 PM)
Average42 °F84%29.64 "Hg
* Reported Jan 30 7:20 AM — Feb 14 7:20 AM, Rheine, Weather by CustomWeather, © 2016

Note: Actual official high and low records may vary slightly from our data, if they occured in-between our weather recording intervals... More about our weather records

Advertising

Rheine Weather History for the Previous 24 Hours

 ConditionsComfort  
Time TempWeatherWind HumidityBarometerVisibility
7:20 AM
Sun, Feb 14
36 °FChilly.13 mph93%29.09 "HgN/A
6:20 AM36 °FChilly.12 mph93%29.09 "HgN/A
5:20 AM36 °FChilly.10 mph93%29.09 "HgN/A
4:20 AM36 °FChilly.9 mph93%29.06 "HgN/A
3:20 AM36 °FChilly.12 mph93%29.06 "HgN/A
2:20 AM36 °FChilly.10 mph93%29.06 "HgN/A
1:20 AM36 °FChilly.12 mph87%29.09 "HgN/A
12:20 AM37 °FChilly.13 mph81%29.09 "HgN/A
11:20 PM
Sat, Feb 13
37 °FChilly.12 mph81%29.09 "HgN/A
10:20 PM37 °FChilly.12 mph81%29.12 "HgN/A
9:20 PM37 °FChilly.13 mph81%29.12 "HgN/A
8:20 PM39 °FChilly.13 mph70%29.12 "HgN/A
7:20 PM39 °FChilly.10 mph75%29.15 "HgN/A
6:20 PM39 °FChilly.10 mph75%29.15 "HgN/A
5:20 PM41 °FQuite cool.10 mph70%29.15 "HgN/A
4:20 PM41 °FQuite cool.8 mph76%29.18 "HgN/A
3:20 PM39 °FChilly.9 mph81%29.18 "HgN/A
2:20 PM37 °FChilly.12 mph81%29.21 "HgN/A
1:20 PM36 °FChilly.12 mph87%29.24 "HgN/A
12:20 PM36 °FChilly.10 mph87%29.30 "HgN/A
11:20 AM32 °FChilly.12 mph93%29.33 "HgN/A
10:20 AM30 °FChilly.8 mph100%29.33 "HgN/A
9:20 AM28 °FChilly.8 mph100%29.36 "HgN/A
Weather by CustomWeather, © 2016

See weather overviewHow to use our weather pages